Preview of NWS' New Version of Forecast
This preview is not operational and should not be used for support decisions.
Latest weather observations around

Kenai, Kenai Municipal Airport (PAEN)

Using English Units (Switch to International System of Units)
Date/ Time (AKST) Wind (mph) Vis. (mi) Weather Sky Cond. Temp (°F) Rel. Humidity Wind Chill (°F) Heat Index (°F) Pressure Precip. (in)
Air Dwpt 6 hour Altimeter (inHg) Sea level (inHg) 1 hr 3 hr 6 hr
Max Min
Dec 13 03:53 Calm 10 Mostly Cloudy FEW039 BKN046 16 15     96%     29.26 29.26      
Dec 13 02:53 SSE 5 10 Cloudy OVC050 16 15     96% 9   29.25 29.26     0
Dec 13 01:53 SSW 5 10 Cloudy OVC049 19 17     92% 12   29.24 29.25      
Dec 13 00:53 Calm 10 Cloudy OVC050 20 19     96%     29.23 29.23      
Dec 12 23:53 Calm 10 Cloudy OVC050 19 17     92%     29.22 29.23   0  
Dec 12 22:53 WNW 3 10 Cloudy FEW031 OVC048 21 18     88% 16   29.2 29.21 0    
Dec 12 22:33 NW 5 10 Cloudy SCT025 BKN030 OVC046 20 17     88% 13   29.2   0    
Dec 12 22:24 N 5 10 Cloudy BKN025 BKN030 OVC044 20 17     88% 13   29.2   0    
Dec 12 21:53 NW 3 9 Light Snow BKN042 OVC085 21 18     88% 16   29.19 29.2 0    
Dec 12 20:53 WNW 3 9 Light Snow OVC032 22 18     84% 17   29.19 29.2 0   0
Dec 12 19:53 NW 6 2 Light Snow and Fog/Mist BKN019 OVC027 22 19     88% 14   29.19 29.2 0    
Dec 12 19:10 NNW 7 4 Light Snow and Fog/Mist OVC027 22 20     92% 13   29.19   0    
Dec 12 18:53 NNW 7 7 Light Snow FEW023 BKN044 OVC065 22 20     92% 13   29.19 29.19 0    
Dec 12 17:53 NNW 7 10 Cloudy OVC038 22 20     92% 13   29.18 29.19 0 0  
Dec 12 16:55 NNW 6 4 Light Snow and Fog/Mist OVC031 22 20     92% 14   29.18   0    
Dec 12 16:53 NNW 6 2 Light Snow and Fog/Mist OVC033 22 20     92% 14   29.18 29.19 0    
Dec 12 15:53 NNW 7 2 Light Snow and Fog/Mist OVC041 23 21     92% 15   29.17 29.18 0    
Dec 12 15:51 NW 7 2 Light Snow and Fog/Mist FEW030 OVC043 23 21     93% 15   29.17   0    
Dec 12 14:53 NW 8 6 Light Snow and Fog/Mist OVC023 23 21     92% 14   29.16 29.17 0   0
Dec 12 14:15 NNW 7 2 Light Snow and Fog/Mist OVC012 24 21     88% 16   29.16   0    
Dec 12 13:53 N 6 4 Light Snow and Fog/Mist OVC012 24 21     88% 17   29.16 29.16 0    
Dec 12 12:53 NNE 7 6 Light Snow and Fog/Mist OVC012 24 21     88% 16   29.15 29.15 0    
Dec 12 11:53 ENE 6 10 Cloudy SCT009 OVC012 24 21     88% 17   29.13 29.14 0 0  
Dec 12 11:08 ENE 9 3 Light Snow and Fog/Mist SCT009 BKN012 OVC043 22 21     96% 12   29.12   0    
Dec 12 10:53 NE 9 1 Light Snow and Fog/Mist SCT006 OVC011 22 21     96% 12   29.11 29.12 0    
Dec 12 10:50 NE 7 1 Light Snow and Fog/Mist SCT006 OVC011 23 21     93% 15   29.11   0    
Dec 12 10:26 NNE 9 2 Light Snow and Fog/Mist BKN006 BKN041 OVC070 23 22     96% 13   29.1   0    
Dec 12 10:23 NNE 9 10 Cloudy SCT006 BKN044 OVC070 23 22     96% 13   29.1        
Dec 12 09:53 SE 10 10 Cloudy BKN036 OVC070 23 22     96% 12   29.08 29.09 0    
Dec 12 09:15 SE 10 4 Light Snow and Fog/Mist FEW016 BKN036 OVC070 23 21     92% 12   29.07   0    
Dec 12 08:56 SSE 10 3 Light Snow and Fog/Mist FEW010 BKN018 OVC070 23 21     92% 12   29.07   0    
Dec 12 08:53 SSE 11 2 Light Snow and Fog/Mist FEW010 SCT020 OVC070 23 21     92% 12   29.06 29.07 0   0
Dec 12 08:43 SSE 11 2 Light Snow and Fog/Mist FEW009 SCT040 OVC070 23 22     96% 12   29.06   0    
Dec 12 07:53 SSE 9 4 Light Snow and Fog/Mist BKN042 OVC070 23 21     92% 13   29.04 29.05 0    
Dec 12 07:48 SSE 11 3 Light Snow and Fog/Mist OVC040 23 21     93% 12   29.04   0    
Dec 12 07:20 SSE 10 2 Light Snow and Fog/Mist OVC026 23 21     92% 12   29.03   0    
Dec 12 07:06 SSE 10 2 Light Snow and Fog/Mist OVC034 24 21     88% 14   29.03   0    
Dec 12 06:53 SSE 11 4 Light Snow and Fog/Mist OVC038 24 22     91% 13   29.02 29.03 0    
Dec 12 06:24 SSE 13 4 Light Snow and Fog/Mist OVC034 24 22     91% 12   29.01   0    
Dec 12 06:14 SSE 14 2 Light Snow and Fog/Mist BKN036 OVC047 24 22     91% 12   29.01   0    
Dec 12 05:53 SSE 11 5 Light Snow and Fog/Mist BKN047 OVC055 24 21     88% 13   29 29.01 0 0  
Dec 12 04:53 SE 9 10 Cloudy OVC055 24 20     84% 14   28.98 28.99      
Dec 12 03:53 SE 9 10 Cloudy OVC047 25 20     81% 16   28.97 28.98      
Dec 12 02:53 S 3 10 Cloudy OVC034 25 19     78% 21   28.96 28.97     0
Dec 12 01:53 SSE 9 10 Cloudy BKN040 OVC060 25 19     78% 16   28.95 28.95      
Dec 12 00:53 SSE 9 10 Cloudy OVC065 24 20     84% 14   28.93 28.94      
Dec 11 23:53 SSE 6 10 Cloudy BKN049 OVC065 25 21     85% 18   28.92 28.93   0  
Dec 11 22:53 S 6 10 Cloudy OVC048 26 22     84% 19   28.91 28.91      
Dec 11 21:53 SSE 6 10 Cloudy OVC042 26 23     88% 19   28.89 28.89 0    
Dec 11 20:53 SSE 3 10 Cloudy OVC042 27 23     85% 23   28.87 28.87     0
Dec 11 19:53 SE 8 10 Cloudy OVC065 27 25     92% 19   28.85 28.85 0    
Dec 11 18:53 E 5 4 Light Snow and Fog/Mist OVC033 27 25     92% 21   28.84 28.84 0    
Dec 11 18:50 ESE 5 4 Light Snow and Fog/Mist OVC031 27 25     93% 21   28.84   0    
Dec 11 17:53 Calm 1.5 Light Snow and Fog/Mist BKN008 OVC018 28 26     92%     28.82 28.83 0 0  
Dec 11 17:24 W 11 1.25 Light Snow and Fog/Mist BKN006 BKN011 OVC018 28 28     100% 18   28.8   0    
Dec 11 17:01 SW 13 2 Light Snow and Fog/Mist FEW008 BKN028 OVC038 29 27     92% 19   28.78   0    
Dec 11 16:53 SSW 11 4 Light Snow and Fog/Mist FEW008 OVC038 29 27     92% 19   28.78 28.78 0    
Dec 11 15:53 S 18 0.5 Light Snow and Fog BKN011 OVC017 29 27     92% 16   28.76 28.76 0    
Dec 11 15:46 S 15 1 Light Snow and Fog/Mist OVC013 29 27     92% 18   28.75   0    
Dec 11 15:30 SSE 15 2 Light Snow and Fog/Mist FEW015 OVC021 30 27     88% 19   28.74   0    
Dec 11 14:53 SSE 17 10 Cloudy FEW026 OVC033 31 28     89% 19   28.73 28.73 0   0
Dec 11 14:28 SSE 14 3 Light Snow and Fog/Mist FEW010 BKN026 OVC034 32 31     96% 22   28.72   0    
Dec 11 14:13 SSE 16 3 Light Snow and Fog/Mist FEW008 OVC032 32 31     96% 21   28.71   0    
Dec 11 13:53 SSE 10 2 Light Snow and Fog/Mist FEW004 OVC015 32 31     96% 24   28.7 28.71 0    
Dec 11 13:48 SSE 10 1.25 Light Snow and Fog/Mist FEW004 OVC013 32 32     100% 24   28.7   0    
Dec 11 12:53 SE 6 0.75 Light Snow and Fog/Mist VV015 31 31     100% 25   28.69 28.7 0    
Dec 11 12:46 SE 5 0.75 Light Snow and Fog/Mist VV016 31 31     100% 26   28.69   0    
Dec 11 12:37 SE 6 1 Light Snow and Fog/Mist VV017 31 31     100% 25   28.69   0    
Dec 11 11:53 SE 6 2 Light Snow and Fog/Mist OVC037 31 31     100% 25   28.67 28.68 0 0  
Dec 11 11:11 SE 6 3 Light Snow and Fog/Mist BKN047 OVC060 31 31     100% 25   28.67   0    
Dec 11 10:53 SSE 6 2 Light Snow and Fog/Mist OVC034 31 30     96% 25   28.66 28.67 0    
Dec 11 10:42 SSE 7 2 Light Snow and Fog/Mist OVC028 31 30     96% 24   28.66   0    
Dec 11 10:29 SSE 7 2 Light Snow and Fog/Mist OVC030 31 30     96% 24   28.66   0    
Dec 11 10:21 SE 7 3 Light Snow and Fog/Mist OVC030 31 30     96% 24   28.65   0    
Dec 11 10:15 SE 8 2 Light Snow and Fog/Mist OVC032 31 30     96% 23   28.65   0    
Dec 11 09:53 SE 6 10 Cloudy OVC047 30 30     100% 24   28.65 28.65 0    
Dec 11 08:53 SE 8 5 Light Snow and Fog/Mist OVC055 30 30     100% 22   28.63 28.63 0   0
Dec 11 07:53 SSE 7 10 Cloudy FEW055 OVC075 31 30     96% 24   28.61 28.61      
Dec 11 06:53 SSE 8 10 Cloudy OVC060 30 29     96% 22   28.58 28.59      
Dec 11 06:13 S 6 10 Cloudy SCT009 OVC060 31 30     96% 25   28.57        
Dec 11 06:05 S 7 10 Cloudy BKN009 BKN015 OVC060 32 30     92% 26   28.57        
Dec 11 05:53 SSW 8 10 Cloudy FEW010 OVC060 32 30     92% 25   28.57 28.58      
Dec 11 04:53 SSW 5 10 Cloudy OVC100 29 27     92% 24   28.56 28.56      
Dec 11 03:53 SW 3 10 Cloudy OVC110 28 26     92% 24   28.55 28.56      
Dec 11 02:53 S 3 10 Cloudy OVC085 28 25     88% 24   28.55 28.55      
Dec 10 17:53 NNE 20 10 Cloudy and Windy OVC110 30 24     78% 17   28.66 28.66      
Dec 10 16:53   10 Cloudy OVC095 31 22     69%     28.69 28.69      
Dec 10 15:53 NNE 22 10 Cloudy and Windy SCT065 OVC085 30 24     78% 17   28.73 28.74      
Dec 10 14:53 NNE 22 10 Cloudy and Windy OVC095 29 24     82% 15   28.77 28.78      
Dec 10 13:53 NNE 20 10 Cloudy and Windy OVC085 29 24     82% 16   28.82 28.82      
Dec 10 12:53 N 24 10 Cloudy and Windy OVC075 29 24     82% 15   28.85 28.86      
Dec 10 11:53 NNE 21 10 Clear and Windy CLR 29 24     82% 16   28.88 28.88      
Dec 10 10:53 NNE 17 10 Partly Cloudy SCT090 28 24     85% 16   28.9 28.91      
Dec 10 09:53 NNE 18 10 Partly Cloudy SCT080 28 24     85% 15   28.92 28.92      
Dec 10 08:53 NNE 16 10 Cloudy OVC065 29 24     82% 17   28.94 28.94     0
Dec 10 07:53 NNE 18 10 Cloudy SCT055 OVC070 28 24     85% 15   28.96 28.96 0    
Dec 10 06:53 NNE 15 10 Cloudy OVC065 28 26     92% 17   28.98 28.99 0    
Dec 10 05:53 NNE 18 10 Cloudy OVC075 28 25     88% 15   28.99 28.99   0  
Dec 10 04:53 NNE 17 10 Cloudy FEW012 OVC075 27 25     92% 14   29 29.01      
Dec 10 03:53 NNE 22 10 Cloudy and Windy FEW012 SCT055 OVC075 28 25     88% 14   29.02 29.03 0    
Dec 10 02:53   8 Light Snow FEW011 OVC044 28 25     88%     29.04 29.04 0   0
Dec 10 01:53 N 23 8 Cloudy and Windy SCT010 OVC038 27 26     96% 12   29.05 29.06 0    
Dec 10 00:53 N 22 5 Light Snow and Fog/Mist OVC043 28 26     92% 14   29.06 29.07 0    
Dec 10 00:21 N 21 4 Light Snow and Fog/Mist OVC041 28 26     92% 15   29.08   0    
Dec 09 23:53   2.5 Light Snow and Fog/Mist OVC035 28 26     92%     29.08 29.09 0 0  
Dec 09 22:53 NNE 18 10 Cloudy BKN055 OVC065 28 25     88% 15   29.08 29.09      
Dec 09 21:53 NNE 20 10 Mostly Cloudy and Windy BKN110 28 25     88% 15   29.08 29.08      
Dec 09 20:53 NNE 17 10 Cloudy SCT070 OVC100 28 27     96% 16   29.08 29.08      
Dec 09 19:53 N 14 10 Mostly Cloudy BKN080 27 25     92% 16   29.09 29.1      
Dec 09 18:53 NNE 9 10 Mostly Cloudy BKN100 24 20     84% 14   29.09 29.1      
Dec 09 17:53 NNE 9 10 Cloudy OVC100 25 20     81% 16   29.1 29.11      
Dec 09 16:53 NNE 8 10 Mostly Cloudy BKN110 23 20     88% 14   29.11 29.12      
Dec 09 15:53 NE 8 10 Partly Cloudy SCT035 22 19     88% 13   29.12 29.13      
Dec 09 14:53 NE 5 10 Mostly Cloudy BKN041 23 20     88% 17   29.13 29.14      
Dec 09 13:53 ESE 6 10 Mostly Clear FEW031 29 22     75% 23   29.14 29.14      
Dec 09 12:53 SSE 7 10 Partly Cloudy SCT033 30 23     75% 23   29.14 29.15      
Dec 09 11:53 SSE 5 10 Partly Cloudy SCT034 28 23     81% 23   29.14 29.14      
Dec 09 10:53 SSE 10 10 Clear CLR 27 23     85% 17   29.13 29.13      
Dec 09 09:53 S 11 10 Partly Cloudy FEW038 SCT047 28 23     81% 18   29.12 29.13      
Dec 09 08:53 SSE 11 10 Clear CLR 26 22     84% 16   29.12 29.12     0
Dec 09 07:53 S 11 10 Mostly Clear FEW031 FEW044 26 21     81% 16   29.11 29.12 0    
Dec 09 06:53 S 11 10 Light Snow FEW029 OVC040 28 23     81% 18   29.11 29.11 0    
Dec 09 05:53 S 14 10 Clear CLR 27 21     78% 16   29.11 29.11      
Dec 09 04:53 SSE 13 10 Mostly Cloudy BKN040 27 21     78% 16   29.11 29.11      
Dec 09 03:53 SE 11 10 Cloudy OVC041 28 21     75% 18   29.12 29.12      
Dec 09 02:53 SSE 13 10 Cloudy OVC040 29 22     75% 19   29.11 29.11 0   0
Dec 09 01:53 SSE 14 9 Light Snow OVC039 29 23     78% 18   29.1 29.1 0    
Dec 09 00:53 S 16 10 Cloudy OVC036 29 23     78% 17   29.08 29.08      
Dec 08 23:53 SSE 14 10 Cloudy OVC034 29 23     78% 18   29.07 29.08      
Dec 08 22:53 S 15 10 Cloudy OVC034 28 23     81% 17   29.06 29.07      
Dec 08 21:53 SSE 15 10 Cloudy OVC032 28 23     81% 17   29.06 29.06      
Dec 08 21:36 SSE 11 10 Cloudy OVC030 28 23     81% 18   29.06        
Dec 08 21:02 S 15 10 Cloudy OVC029 29 23     78% 18   29.05        
Dec 08 20:53 S 17 10 Cloudy OVC030 29 23     78% 17   29.05 29.06     0
Dec 08 20:14 S 15 10 Mostly Cloudy BKN029 28 23     81% 17   29.04        
Dec 08 19:53 S 11 10 Mostly Clear FEW028 28 23     81% 18   29.05 29.05      
Dec 08 18:53 S 14 10 Partly Cloudy FEW026 SCT055 29 25     85% 18   29.06 29.06      
Dec 08 17:53 S 14 10 Cloudy OVC060 30 25     81% 19   29.06 29.07   0  
Dec 08 16:53 S 14 10 Cloudy BKN050 BKN060 OVC080 31 28     89% 21   29.08 29.08      
Dec 08 15:53 S 15 10 Cloudy FEW015 BKN039 OVC070 32 30     92% 22   29.09 29.09 0    
Dec 08 15:03 S 13 2 Light Snow and Fog/Mist BKN011 OVC029 32 31     96% 22   29.11   0    
Dec 08 14:53 S 16 1 Light Snow and Fog/Mist BKN008 BKN018 OVC026 32 31     96% 21   29.11 29.11 0   0
Dec 08 14:50 S 15 1 Light Snow and Fog/Mist SCT008 OVC013 32 30     93% 22   29.11   0    
Dec 08 13:53 S 14 2 Light Snow and Fog/Mist BKN009 OVC015 32 32     100% 22   29.11 29.12 0    
Dec 08 13:50 S 14 1.5 Light Snow and Fog/Mist SCT007 BKN011 OVC015 32 32     100% 22   29.11   0    
Dec 08 13:21 S 13 2 Light Snow and Fog/Mist BKN007 OVC014 33 32     96% 24   29.11   0    
Dec 08 12:53 S 17 0.75 Light Snow and Fog/Mist OVC007 33 32     96% 22   29.11 29.11 0    
Dec 08 12:21 S 11 1.75 Light Snow and Fog/Mist BKN006 OVC011 33 33     100% 24   29.1   0    
Dec 08 11:53 S 16 7   BKN005 OVC010 34 34     100% 24   29.1 29.1 0 0  
Dec 08 11:22 S 7 5 Fog/Mist BKN006 OVC010 34 34     100% 28   29.1        
Dec 08 10:53 Calm 4 Fog/Mist OVC011 34 34     100%     29.09 29.09 0    
Dec 08 09:53 SSW 3 10 Light Rain SCT007 OVC012 34 34     100% 31   29.07 29.07 0    
Dec 08 08:53 S 5 10 Light Rain BKN007 OVC021 34 34     100% 30   29.04 29.05 0   0
Dec 08 07:53 S 6 9 Clear   34 34     100% 29   29.02 29.03 0    
Dec 08 07:26 S 5 7 Light Rain FEW003 OVC013 34 34     100% 30   29.01   0    
Dec 08 06:53 S 5 10 Light Rain OVC022 34 34     100% 30   29 29.01 0    
Dec 08 06:32 SSE 5 10 Unknown Precipitation BKN025 OVC031 34 34     100% 30   29   0    
Dec 08 05:53 SSE 6 10 Unknown Precipitation SCT031 OVC042 34 34     100% 29   28.99 29 0 0  
Dec 08 04:53 SW 3 10 Cloudy BKN050 OVC075 33 33     100% 30   28.98 28.99      
Dec 08 03:53 N 5 10 Cloudy OVC100 35 34     96% 31   28.99 28.99      
Dec 08 02:53 Calm 10 Cloudy OVC070 35 34     96%     28.99 29     0
Dec 08 02:19 WNW 5 3 Fog/Mist OVC070 34 34     100% 30   29        
Dec 08 02:15 Calm 1.75 Fog/Mist OVC075 34 34     100%     29.01        
Dec 08 01:53 Calm 2.5 Fog/Mist SCT060 OVC075 34 34     100%     29.02 29.02      
Dec 08 01:51 Calm 2.5 Fog/Mist BKN060 OVC075 34 34     100%     29.02        
Dec 08 00:53 Calm 10 Clear   34 34     100%     29.04 29.04      
Dec 07 23:53 SSE 3 10 Cloudy FEW090 OVC110 35 35     100% 32   29.05 29.05   0  
Dec 07 22:53 S 3 10 Cloudy FEW004 SCT070 OVC110 35 35     100% 32   29.05 29.05      
Dec 07 21:53 Calm 10 Cloudy FEW009 OVC046 36 36     100%     29.06 29.07 0    
Dec 07 21:11 Calm 10 Cloudy FEW011 BKN070 OVC085 36 36     100%     29.06   0    
Dec 07 20:53 Calm 10 Light Rain FEW010 BKN021 OVC028 37 37     100%     29.07 29.07 0   0
Dec 07 19:53 W 3 10 Light Rain SCT009 OVC021 37 37     100% 35   29.08 29.08 0    
Dec 07 18:53 Calm 9 Light Rain BKN007 OVC029 37 37     100%     29.09 29.09 0    
Dec 07 18:19 W 3 9 Light Rain BKN006 OVC033 38 38     100% 36   29.09   0    
Dec 07 17:53 SSW 3 6 Light Rain and Fog/Mist FEW006 OVC033 37 37     100% 35   29.09 29.1 0 0  
Dec 07 16:53 ENE 7 8 Light Rain OVC030 38 38     100% 33   29.09 29.1 0    
Dec 07 15:53 ENE 5 8 Light Rain OVC031 38 37     97% 34   29.09 29.1 0    
Dec 07 14:53 NNE 7 8 Light Rain OVC035 39 38     96% 34   29.09 29.1 0   0
Dec 07 13:53 NE 6 10 Light Rain OVC038 38 38     100% 33   29.1 29.11 0    
Dec 07 12:53 ESE 8 10 Light Rain OVC039 41 37     86% 36   29.1 29.11 0    
Dec 07 11:53 E 14 10 Light Rain OVC042 41 37     86% 33   29.1 29.1 0 0  
Dec 07 10:53 E 15 10 Light Rain OVC043 40 37     89% 32   29.09 29.1 0    
Dec 07 09:53 ENE 11 10 Light Rain OVC045 40 37     89% 33   29.09 29.1 0    
Dec 07 08:53 E 14 10 Light Rain OVC048 40 37     89% 32   29.09 29.1 0   0
Dec 07 07:53 ENE 11 10 Cloudy SCT065 OVC080 39 37     93% 32   29.09 29.09      
Dec 07 06:53 NE 10 10 Cloudy OVC065 37 36     96% 30   29.1 29.1      
Dec 07 05:53 NE 16 10 Cloudy OVC065 36 35     96% 26   29.1 29.1   0  
Dec 07 04:53 NNE 18 10 Cloudy OVC060 35 34     96% 24   29.12 29.12 0    
Dec 07 04:09 NNE 18 10 Cloudy SCT008 BKN037 OVC065 35 34     96% 24   29.14        
Dec 07 03:53 NNE 17 10 Cloudy BKN008 BKN030 OVC055 35 34     96% 25   29.15 29.15      
Dec 07 02:53 NNE 21 10 Cloudy and Windy OVC007 35 34     96% 24   29.17 29.18 0   0
Dec 07 01:53 NNE 18 10 Light Rain OVC006 35 34     96% 24   29.21 29.21 0    
Dec 07 00:53 NNE 18 10 Unknown Precipitation OVC008 35 34     96% 24   29.24 29.24 0    
Dec 06 22:53 NNE 17 10 Cloudy OVC006 35 35     100% 25   29.3 29.3 0    
Dec 06 21:53 NNE 16 10 Light Rain BKN007 OVC036 35 34     96% 25   29.31 29.32 0    
Dec 06 21:27 NNE 15 8 Light Rain FEW007 OVC032 34 33     96% 24   29.32   0    
Dec 06 21:07 NNE 13 8 Light Rain FEW007 OVC024 34 34     100% 25   29.33   0    
Dec 06 20:53 NNE 16 10 Light Snow BKN006 OVC022 35 34     96% 25   29.34 29.34 0   0
Dec 06 20:44 NNE 14 10 Light Rain BKN006 OVC022 35 34     96% 26   29.35   0    
Dec 06 20:21 NNE 17 10 Cloudy OVC004 35 35     100% 25   29.35        
Dec 06 19:53 NNE 14 10 Cloudy OVC005 35 35     100% 26   29.36 29.36 0    
Dec 06 18:53 NNE 13 10 Cloudy OVC007 34 33     96% 25   29.38 29.39 0    
Dec 06 17:53 NE 13 10 Cloudy OVC008 34 33     96% 25   29.4 29.41 0 0  
Dec 06 16:57 NNE 13 10 Light Snow OVC009 34 33     96% 25   29.41   0    
Dec 06 16:53 NNE 11 10 Light Snow OVC009 34 33     96% 26   29.41 29.42 0    
Dec 06 15:53 NNE 9 10 Cloudy BKN009 BKN023 OVC100 34 33     96% 27   29.43 29.44      
Dec 06 14:53 N 6 10 Cloudy BKN008 BKN042 OVC110 34 33     96% 29   29.45 29.45      
Dec 06 14:41 NNE 7 10 Cloudy FEW008 BKN041 OVC110 34 33     96% 28   29.45        
Dec 06 13:53 NNE 9 10 Cloudy OVC060 34 32     92% 27   29.47 29.47      
Dec 06 12:53 NNE 11 10 Partly Cloudy SCT120 34 32     92% 26   29.5 29.5      
Dec 06 11:53 NNE 13 10 Cloudy OVC100 33 32     96% 24   29.52 29.53      
Dec 06 10:53 NNE 9 10 Cloudy OVC110 33 32     96% 25   29.55 29.56      
Dec 06 09:53 N 8 10 Mostly Cloudy BKN110 33 32     96% 26   29.56 29.57      
Dec 06 08:53 N 8 10 Cloudy BKN055 OVC120 32 31     96% 25   29.58 29.59      
Dec 06 07:53 NNE 9 10 Mostly Cloudy FEW090 BKN110 32 32     100% 24   29.6 29.6      
Dec 06 06:53 NNE 9 10 Cloudy FEW055 OVC070 33 32     96% 25   29.62 29.62      
Dec 06 05:53 N 5 10 Cloudy FEW060 OVC080 32 31     96% 27   29.64 29.65      
Dec 06 04:53 NNE 6 10 Cloudy OVC050 32 32     100% 26   29.67 29.67      
Dec 06 03:53 NE 8 10 Cloudy BKN055 OVC070 32 32     100% 25   29.69 29.7      
Dec 06 02:53 NNE 7 10 Cloudy OVC060 33 32     96% 27   29.71 29.71      
Dec 06 01:53 ENE 5 10 Cloudy OVC060 33 32     96% 29   29.73 29.74      
Dec 06 00:53 N 15 10 Cloudy OVC060 33 33     100% 23   29.74 29.75      
Dec 05 23:53 NNE 6 10 Cloudy OVC075 33 32     96% 28   29.76 29.77      
Dec 05 22:53 NNW 6 10 Cloudy SCT065 OVC080 33 32     96% 28   29.78 29.78      
Dec 05 21:53 WNW 5 10 Cloudy OVC070 32 31     96% 27   29.79 29.8      
Dec 05 20:53 N 3 10 Cloudy OVC080 32 31     96% 29   29.81 29.81      
Dec 05 19:53 NNE 7 10 Cloudy FEW085 OVC110 31 30     96% 24   29.81 29.82      
Dec 05 18:53 NNE 6 10 Cloudy OVC085 30 29     96% 24   29.82 29.83      
Dec 05 17:53 NNE 5 10 Cloudy OVC100 30 29     96% 25   29.85 29.85      
Dec 05 16:53 NE 8 10 Mostly Clear FEW100 30 30     100% 22   29.86 29.87      
Dec 05 15:53 NE 6 10 Clear CLR 31 30     96% 25   29.89 29.89      
Dec 05 14:53 NW 8 10 Clear CLR 31 29     92% 23   29.92 29.92      
Dec 05 13:53 N 6 10 Clear CLR 30 29     96% 24   29.93 29.93      
Dec 05 12:53 NNE 3 10 Clear CLR 29 28     96% 25   29.95 29.96      
Dec 05 11:53 Calm 10 Clear CLR 28 27     96%     29.98 29.99      
Dec 05 10:53 N 5 10 Clear CLR 25 25     100% 19   30.01 30.01      
Dec 05 09:53 ENE 3 10 Clear CLR 27 27     100% 23   30.02 30.02      
Dec 05 08:53 NE 3 10 Clear CLR 27 27     100% 23   30.03 30.04      
Dec 05 07:53 ENE 7 10 Clear CLR 28 27     96% 21   30.04 30.05      
Dec 05 06:53 Calm 10 Clear CLR 27 27     100%     30.05 30.06      
Dec 05 05:53 NNW 3 8 Clear CLR 28 27     96% 24   30.05 30.06      
Dec 05 04:53 N 3 10 Clear CLR 28 27     96% 24   30.06 30.06      
Dec 05 03:53 Calm 10 Clear CLR 28 27     96%     30.06 30.07      
Dec 05 02:53 NNE 5 10 Clear CLR 29 29     100% 24   30.08 30.08      
Dec 05 01:53 N 3 10 Clear CLR 29 28     96% 25   30.07 30.08      
Dec 05 00:53 ENE 7 10 Partly Cloudy SCT110 30 30     100% 23   30.07 30.08      
Dec 04 23:53 NNE 3 10 Mostly Cloudy FEW090 BKN110 31 30     96% 28   30.08 30.09      
Dec 04 22:53 NNE 6 10 Cloudy OVC085 31 30     96% 25   30.08 30.08      
Dec 04 21:53 NNE 7 10 Cloudy FEW085 OVC110 31 30     96% 24   30.07 30.07      
Dec 04 20:53 NNE 8 10 Mostly Cloudy BKN120 31 30     96% 23   30.06 30.07     0
Dec 04 19:53 NNE 6 10 Clear CLR 29 28     96% 23   30.07 30.07      
Dec 04 18:53 NNE 9 10 Clear CLR 30 28     92% 22   30.06 30.07      
Dec 04 17:53 N 8 10 Mostly Cloudy BKN050 31 28     89% 23   30.05 30.06   0  
Dec 04 16:53 NNE 11 10 Cloudy OVC048 32 30     92% 23   30.03 30.03 0    
Dec 04 15:53 NNE 15 10 Light Snow OVC048 32 29     88% 22   30.03 30.03 0    
Dec 04 14:58 NNE 10 10 Light Snow OVC060 32 27     81% 24   30.03   0    
Dec 04 14:53 NNE 11 10 Cloudy OVC060 32 27     81% 23   30.03 30.03      
Dec 04 13:53 N 14 10 Cloudy OVC065 32 28     85% 22   30.01 30.02      
Dec 04 12:53 NNE 16 10 Cloudy BKN065 OVC080 31 26     82% 20   30.01 30.01      
Dec 04 11:53 NNE 18 10 Cloudy BKN070 OVC090 31 26     82% 19   30.02 30.03      
Dec 04 10:53 NNE 20 10 Mostly Cloudy and Windy FEW080 BKN120 31 25     78% 19   30.04 30.04      
Dec 04 09:53 NNE 21 10 Cloudy and Windy OVC060 30 25     81% 17   30.06 30.06      
Dec 04 08:53 NNE 25 10 Cloudy and Windy OVC070 30 26     85% 16   30.06 30.06 0   0
Dec 04 07:53 NNE 21 10 Cloudy and Windy OVC048 30 25     81% 17   30.08 30.09      
Dec 04 06:53 NNE 18 10 Cloudy OVC070 30 27     88% 18   30.1 30.1      
Dec 04 05:53 NNE 17 10 Cloudy OVC075 30 27     88% 18   30.11 30.11      
Dec 04 04:53 NNE 15 10 Cloudy OVC085 29 27     92% 18   30.15 30.15      
Dec 04 03:53 NNE 15 10 Cloudy OVC080 28 27     96% 17   30.18 30.18      
Dec 04 03:06 NNE 16 10 Cloudy SCT008 OVC080 28 27     96% 16   30.19        
Dec 04 02:53 NE 16 10 Cloudy BKN008 OVC080 28 27     96% 16   30.2 30.21     0
Dec 04 01:53 NE 15 10 Cloudy OVC006 29 28     96% 18   30.23 30.24      
Dec 04 00:53 NE 15 10 Cloudy OVC005 28 28     100% 17   30.24 30.25      
Dec 03 23:53 NNE 16 5 Fog/Mist OVC006 28 27     96% 16   30.26 30.27 0 0  
Dec 03 23:14 NE 16 5 Fog/Mist OVC006 28 28     100% 16   30.26        
Dec 03 22:53 NE 16 4 Fog/Mist OVC002 29 29     100% 17   30.25 30.26      
Dec 03 22:49 NNE 18 3 Fog/Mist OVC002 28 28     100% 16   30.25        
Dec 03 22:35   1.75 Fog/Mist OVC003 29 29     100%     30.25        
Dec 03 21:53 NE 13 6 Fog/Mist OVC003 29 29     100% 19   30.27 30.27      
Dec 03 21:23 NNE 14 3 Fog/Mist OVC003 29 29     100% 18   30.27        
Dec 03 20:53 NNE 7 1.75 Fog/Mist OVC003 31 31     100% 24   30.28 30.29      
Dec 03 20:01 NNE 7 2 Fog/Mist OVC003 30 30     100% 23   30.29        
Dec 03 19:53 NNE 9 4 Fog/Mist OVC003 29 29     100% 20   30.29 30.29      
Dec 03 18:53 NNE 8 1.75 Fog/Mist OVC003 31 31     100% 23   30.27 30.28      
Dec 03 17:53 NE 10 10 Cloudy OVC003 31 31     100% 22   30.28 30.28      
Dec 03 17:18 NNE 8 2 Fog/Mist OVC003 31 31     100% 23   30.27        
Dec 03 17:00 N 7 0.5 Fog VV003 30 30     100% 23   30.27        
Dec 03 16:53 N 5 1 Fog/Mist VV003 30 30     100% 25   30.27 30.28      
Dec 03 16:19 NNE 6 1 Fog/Mist BKN002 29 29     100% 23   30.27        
Dec 03 15:53 N 7 10 Fog SCT002 29 29     100% 22   30.27 30.27      
Dec 03 15:26 N 7 3 Fog/Mist SCT002 29 29     100% 22   30.26        
Dec 03 15:02 NNE 6 3 Fog/Mist BKN002 29 29     100% 23   30.26        
Dec 03 14:53 NNE 8 3 Fog/Mist SCT001 30 30     100% 22   30.26 30.27      
Dec 03 13:53 N 5 10 Clear CLR 32 31     96% 27   30.26 30.26      
Dec 03 12:53 NNE 5 10 Clear CLR 33 31     92% 29   30.24 30.25      
Dec 03 11:53 E 5 10 Clear CLR 32 31     96% 27   30.24 30.24      
Dec 03 10:53 ENE 5 10 Partly Cloudy SCT110 29 28     96% 24   30.24 30.24      
Dec 03 09:53 S 3 10 Clear CLR 32 30     92% 29   30.22 30.23      
Dec 03 08:53 S 7 10 Clear CLR 30 28     92% 23   30.2 30.2      
Dec 03 07:53 S 7 10 Clear CLR 32 30     92% 26   30.19 30.19      
Dec 03 06:53 S 8 10 Clear CLR 32 31     96% 25   30.16 30.17      
Dec 03 05:53 SSE 8 10 Clear CLR 32 32     100% 25   30.14 30.14      
Dec 03 04:53 S 7 10 Clear CLR 33 32     96% 27   30.12 30.13      
Dec 03 03:53 S 8 10 Clear CLR 35 34     96% 29   30.11 30.12      
Dec 03 03:18 S 7 10 Partly Cloudy SCT009 35 34     96% 29   30.11        
Dec 03 03:04 S 7 10 Mostly Cloudy BKN009 35 35     100% 29   30.1        
Dec 03 02:53 SSE 8 10 Cloudy OVC011 35 35     100% 29   30.1 30.1     0
Dec 03 00:53 SSW 7 10 Cloudy BKN008 BKN055 OVC075 35 35     100% 29   30.08 30.09 0    
Dec 03 00:23 S 5 10 Light Rain FEW004 OVC039 36 36     100% 32   30.08   0    
Dec 03 00:15 Calm 10 Light Rain BKN004 BKN018 OVC041 36 36     100%     30.07   0    
Dec 02 23:53 W 6 10 Light Rain BKN005 OVC010 37 37     100% 32   30.06 30.07 0 0  
Dec 02 23:35 S 6 10 Light Rain BKN008 OVC016 36 36     100% 31   30.06   0    
Dec 02 23:15 SSE 7 10 Light Rain BKN018 BKN023 OVC049 36 36     100% 30   30.05   0    
Dec 02 22:53 SE 7 10 Light Rain FEW015 OVC038 36 35     96% 30   30.05 30.05 0    
Dec 02 22:51 SE 7 10 Light Rain FEW015 OVC036 36 36     100% 30   30.05   0    
Dec 02 21:53 SW 5 9 Light Rain FEW006 BKN023 OVC032 35 35     100% 31   30.05 30.05 0    
Dec 02 21:48 S 3 8 Light Rain SCT023 OVC032 36 36     100% 33   30.05   0    
Dec 02 21:02 ESE 7 8 Light Rain FEW023 OVC029 35 34     96% 29   30.05   0    
Dec 02 20:53 ESE 8 10 Light Rain SCT025 OVC031 35 34     96% 29   30.05 30.06 0   0
Dec 02 20:40 ESE 7 10 Light Rain FEW025 OVC031 35 34     96% 29   30.05   0    
Dec 02 20:31 ESE 6 10 Light Rain BKN028 OVC034 35 34     96% 30   30.05   0    
Dec 02 19:53 E 5 10 Cloudy FEW006 BKN034 OVC070 36 35     96% 32   30.05 30.05 0    
Dec 02 19:40 3 10 Cloudy SCT005 OVC070 36 35     96% 33   30.05   0    
Dec 02 18:53 ESE 8 10 Light Rain OVC049 36 35     96% 30   30.04 30.05 0    
Dec 02 18:34 ESE 8 10 Light Rain OVC035 36 35     96% 30   30.04   0    
Dec 02 17:53 SE 7 7 Rain OVC020 36 35     96% 30   30.05 30.06 0 0  
Dec 02 16:53 WNW 6 7 Light Rain OVC024 35 35     100% 30   30.06 30.06 0    
Dec 02 15:53 NE 3 5 Rain and Fog/Mist OVC020 35 34     96% 32   30.06 30.06 0    
Dec 02 14:53 N 3 6 Light Rain and Fog/Mist OVC024 35 34     96% 32   30.06 30.07 0   0
Dec 02 14:19 WNW 3 7 Light Rain BKN028 OVC038 35 34     96% 32   30.07   0    
Dec 02 13:53 N 3 8 Light Rain OVC039 34 33     96% 31   30.06 30.07 0    
Dec 02 12:53 NNW 5 9 Light Rain OVC030 35 31     85% 31   30.07 30.08 0    
Dec 02 11:53 N 7 10 Cloudy OVC065 33 30     88% 27   30.05 30.05      
Dec 02 10:53 NNE 3 10 Cloudy OVC075 32 29     88% 29   30.05 30.06      
Dec 02 09:53 NE 5 10 Cloudy OVC070 28 26     92% 23   30.05 30.06      
Dec 02 08:53 NNE 5 10 Clear CLR 27 25     92% 21   30.05 30.06      
Dec 02 07:53 NE 5 10 Clear CLR 28 25     88% 23   30.05 30.06      
Dec 02 06:53 Calm 10 Clear CLR 27 26     96%     30.06 30.06      
Dec 02 05:53 NNE 3 10 Clear CLR 30 25     81% 27   30.06 30.06      
Dec 02 04:53 Calm 10 Partly Cloudy SCT120 29 25     85%     30.05 30.06      
Dec 02 03:53 E 7 10 Clear CLR 30 26     85% 23   30.05 30.05      
Dec 02 02:53 ENE 5 10 Clear CLR 30 26     85% 25   30.05 30.05      
Dec 02 01:53 N 3 10 Clear CLR 29 25     85% 25   30.03 30.03      
Dec 02 00:53 S 5 10 Clear CLR 34 27     75% 30   30.02 30.03      
Dec 01 23:53 SSE 9 10 Clear CLR 35 28     75% 28   30.01 30.02      
Dec 01 22:53 S 15 10 Clear CLR 37 28     70% 28   29.99 30      
Dec 01 21:53 SSE 11 10 Clear CLR 37 29     72% 29   29.97 29.98      
Dec 01 20:53 SSE 13 10 Clear CLR 37 30     76% 29   29.95 29.96     0
Dec 01 19:53 S 23 10 Clear and Windy CLR 40 33     76% 30   29.91 29.92      
Dec 01 18:53 S 26 10 Clear and Breezy CLR 39 32     76% 28   29.85 29.85      
Dec 01 17:53   10 Clear CLR 40 34     79%     29.78 29.78   0  
Dec 01 16:53 S 25 10 Cloudy and Windy FEW022 BKN065 OVC100 41 33     73% 31   29.72 29.73 0    
Dec 01 15:53 SSE 16 10 Cloudy SCT070 BKN085 OVC100 43 33     68% 35   29.69 29.69      
Dec 01 14:53 ESE 6 10 Cloudy SCT046 BKN070 OVC095 40 33     76% 36   29.68 29.69     0
Dec 01 13:53 Calm 10 Cloudy OVC055 36 33     89%     29.7 29.7      
Dec 01 12:53 E 9 10 Cloudy SCT065 OVC110 36 33     89% 29   29.72 29.72 0    
Dec 01 11:53 ENE 7 10 Cloudy FEW027 OVC029 34 33     96% 28   29.76 29.77 0 0  
Dec 01 10:53 5 5 Light Rain and Fog/Mist FEW005 OVC029 34 32     92% 30   29.79 29.8 0    
Dec 01 09:53 N 5 5 Light Rain and Fog/Mist BKN020 OVC040 33 33     100% 29   29.79 29.8 0    
Dec 01 08:53 NNE 6 10 Cloudy BKN060 OVC080 33 32     96% 28   29.79 29.8     0
Dec 01 07:53 NNE 8 10 Cloudy SCT060 SCT080 OVC110 33 33     100% 26   29.79 29.8 0    
Dec 01 06:53 N 14 10 Light Rain OVC040 33 31     92% 23   29.8 29.81 0    
Dec 01 06:15 N 8 10 Cloudy FEW004 OVC055 33 33     100% 26   29.81        
Dec 01 05:53 N 8 10 Cloudy OVC049 33 33     100% 26   29.81 29.82   0  
Dec 01 04:53 N 7 10 Cloudy OVC048 33 33     100% 27   29.81 29.82 0    
Dec 01 04:16 N 8 10 Cloudy BKN046 OVC060 33 32     96% 26   29.82   0    
Dec 01 04:01 N 8 10 Light Freezing Rain BKN042 OVC060 32 32     100% 25   29.83   0    
Dec 01 03:53 N 7 10 Unknown Precipitation OVC042 32 32     100% 26   29.83 29.83 0    
Dec 01 03:45 N 8 10 Light Freezing Rain OVC042 32 32     100% 25   29.84   0    
Dec 01 03:38 N 9 10 Cloudy OVC040 32 32     100% 24   29.83   0    
Dec 01 03:27 N 9 10 Light Freezing Rain SCT033 BKN043 OVC075 32 31     96% 24   29.83   0    
Dec 01 03:18 N 13 7 Light Snow BKN033 OVC045 32 31     96% 22   29.83   0    
Dec 01 03:10 N 9 4 Light Snow and Fog/Mist FEW024 OVC029 32 31     96% 24   29.83   0    
Dec 01 02:53 NNE 10 5 Light Snow and Fog/Mist FEW012 OVC031 32 31     96% 24   29.84 29.84 0   0
Dec 01 01:53 N 10 10 Cloudy OVC033 31 31     100% 22   29.83 29.83      
Dec 01 01:08 NNE 11 10 Cloudy FEW005 OVC035 31 31     100% 22   29.83        
Dec 01 00:53 NNE 10 10 Cloudy OVC037 31 31     100% 22   29.82 29.83      
Nov 30 23:53 N 11 10 Cloudy OVC035 31 30     96% 22   29.83 29.83 0 0  
Nov 30 23:01 N 15 4 Light Snow and Fog/Mist OVC037 30 29     96% 19   29.83   0    
Nov 30 22:53 NNE 13 2.5 Light Snow and Fog/Mist OVC037 30 29     96% 20   29.83 29.84 0    
Nov 30 22:37 NNE 13 2.5 Light Snow and Fog/Mist OVC031 30 29     96% 20   29.83   0    
Nov 30 22:30 NNE 11 1.75 Light Snow and Fog/Mist BKN029 OVC038 30 29     96% 21   29.82   0    
Nov 30 22:19 NNE 10 1.75 Light Snow and Fog/Mist BKN030 OVC038 30 29     96% 21   29.83   0    
Nov 30 21:53 NNE 11 10 Cloudy OVC042 30 28     92% 21   29.83 29.83 0    
Nov 30 21:19 NNE 14 3 Light Snow and Fog/Mist BKN030 OVC042 29 28     96% 18   29.83   0    
Nov 30 20:53 NNE 11 1.75 Light Snow and Fog/Mist OVC023 29 28     96% 19   29.84 29.85 0   0
Nov 30 19:53 NNE 13 1.5 Light Snow and Fog/Mist OVC023 29 28     96% 19   29.84 29.85 0    
Nov 30 18:53 NE 11 1.75 Light Snow and Fog/Mist OVC021 29 28     96% 19   29.85 29.85 0    
Nov 30 18:06 NNE 11 2 Light Snow and Fog/Mist BKN023 OVC029 29 28     96% 19   29.85   0    
Nov 30 17:53 NNE 13 3 Light Snow and Fog/Mist BKN027 OVC032 29 27     92% 19   29.86 29.86 0 0  
Nov 30 16:53 NNE 10 10 Cloudy OVC042 30 27     88% 21   29.87 29.88      
Nov 30 15:53 NNE 11 10 Cloudy OVC038 30 28     92% 21   29.86 29.86      
Nov 30 14:53 NE 11 10 Cloudy FEW031 OVC040 30 28     92% 21   29.87 29.88      
Nov 30 13:53 NE 10 10 Cloudy OVC033 31 29     92% 22   29.89 29.89      
Nov 30 12:53 NNE 10 10 Cloudy OVC040 30 28     92% 21   29.9 29.9      
Nov 30 11:53 NNE 9 10 Cloudy SCT031 OVC042 30 28     92% 22   29.9 29.9      
Nov 30 10:53 NNE 6 10 Cloudy FEW040 OVC050 28 26     92% 22   29.89 29.9      
Nov 30 09:53 N 6 10 Cloudy FEW029 OVC041 27 25     92% 20   29.89 29.9      
Nov 30 08:53 N 6 10 Cloudy BKN030 OVC042 25 24     96% 18   29.88 29.88      
Nov 30 07:53 ENE 6 10 Cloudy SCT047 OVC060 26 24     92% 19   29.87 29.88      
Nov 30 06:53 NNE 6 10 Cloudy SCT035 BKN060 OVC070 26 25     96% 19   29.87 29.88      
Nov 30 05:53 NNE 5 10 Cloudy OVC037 27 25     92% 21   29.87 29.88      
Nov 30 04:53 ENE 3 10 Cloudy OVC035 27 24     89% 23   29.86 29.87      
Nov 30 03:53 Calm 10 Mostly Cloudy BKN034 26 23     88%     29.86 29.87      
May 14 13:53 SSW 14 10 Partly Cloudy SCT090 49 37     63% 44   29.88 29.89      
May 14 02:53 S 8 10 Cloudy OVC110 42 33     70% 37   29.77 29.78      
May 13 11:53 N 15 10 Mostly Clear FEW030 48 34     58% 42   29.88 29.89      
May 13 08:53 NNE 13 10 Clear CLR 40 37     89% 32   29.98 29.99      
May 13 01:12 N 3 10 Clear CLR 36 36     100% 33   30.14        
May 11 19:53 SSE 15 10 Mostly Cloudy BKN085 49 32     52% 43   29.94 29.95      
May 11 16:53 S 17 10 Mostly Cloudy FEW050 SCT080 BKN095 51 31     46%     29.9 29.9      
May 11 14:53 SW 10 10 Cloudy BKN050 OVC070 46 38     73% 41   29.87 29.88 0    
Jun 11 10:53 SE 8 10 Cloudy OVC080 53 40     61%     29.79 29.8      
Jun 11 09:53 W 5 10 Cloudy OVC080 51 43     74%     29.79 29.79      
Jun 10 08:53 Calm 3 Fog/Mist SCT002 49 49     100%     29.78 29.79      
Notice The following observation data may not be complete
Jun 09 13:21   10 Light Rain FEW004 OVC095          %         0    
Jun 06 09:53 NNE 15 10 Clear CLR 52 44     74%     29.8 29.8      
Jun 05 17:53 N 18 10 Clear CLR 55 45     69%     29.78 29.78      
Jun 05 12:53 Calm 10 Light Rain OVC055 47 44     90%     29.82 29.83 0 0